Volver al catálogo

FENGYUN 1C DEB

ActivoSSO
NORAD 30069·DEBRIS·🇨🇳 China

Lanzado May 10, 1999 desde Taiyuan Satellite Launch Center

Loading…

Próximos Pases (próximas 24 horas)

TLE

ActualizadoSource: Space-Track

Época: Sep 14, 2026, 04:22 UTC

1 30069U 99025PW  26257.18221829  .00000429  00000-0  28801-3 0  9995
2 30069  98.8303 236.4555 0049135   1.8805 126.7271 14.05431035  7149

Sigue FENGYUN 1C DEB en tiempo real con AllMySat

Download on the App Store